| time (UTC) | temp F | wind direction | speed MPH | gust MPH | rain 1hr in | rain 24hr in | rain mn in | humidity % | barometer mb |
| 20260504151122 | 67 | 95 | 0.0 | 2.0 | 0.00 | 0.04 | 0.00 | 54 | 1012.9 |
| 20260504150135 | 67 | 97 | 0.0 | 1.0 | 0.00 | 0.04 | 0.00 | 55 | 1012.9 |
| 20260504141128 | 67 | 115 | 0.0 | 3.0 | 0.00 | 0.04 | 0.00 | 62 | 1013.0 |
| 20260504140121 | 66 | 118 | 0.0 | 2.0 | 0.00 | 0.04 | 0.00 | 63 | 1013.0 |
| 20260504130144 | 67 | 128 | 0.0 | 4.0 | 0.00 | 0.04 | 0.00 | 67 | 1013.2 |
| 20260504120125 | 66 | 103 | 0.0 | 3.0 | 0.00 | 0.04 | 0.00 | 68 | 1013.2 |
| 20260504110129 | 66 | 120 | 0.0 | 1.0 | 0.00 | 0.04 | 0.00 | 68 | 1013.4 |
| 20260504100115 | 61 | 131 | 0.0 | 1.0 | 0.00 | 0.04 | 0.00 | 74 | 1013.4 |
| 20260504090125 | 59 | 114 | 0.0 | 0.0 | 0.00 | 0.04 | 0.00 | 80 | 1013.3 |
| 20260504081139 | 58 | 113 | 0.0 | 0.0 | 0.00 | 0.04 | 0.00 | 90 | 1012.9 |
| 20260504080111 | 57 | 113 | 0.0 | 0.0 | 0.00 | 0.04 | 0.00 | 92 | 1012.8 |
| 20260504070128 | 57 | 113 | 0.0 | 1.0 | 0.00 | 0.04 | 0.00 | 95 | 1012.4 |
| 20260504060150 | 48 | 113 | 0.0 | 0.0 | 0.00 | 0.04 | 0.00 | 97 | 1011.9 |
| 20260504050130 | 49 | 113 | 0.0 | 0.0 | 0.00 | 0.04 | 0.00 | 96 | 1011.3 |
| 20260504045116 | 49 | 113 | 0.0 | 0.0 | 0.00 | 0.04 | 0.00 | 96 | 1011.3 |
| 20260504044130 | 49 | 113 | 0.0 | 0.0 | 0.00 | 0.04 | 0.00 | 96 | 1011.3 |
| 20260504043121 | 49 | 113 | 0.0 | 0.0 | 0.00 | 0.04 | 0.00 | 96 | 1011.3 |
| 20260504042147 | 49 | 113 | 0.0 | 0.0 | 0.00 | 0.04 | 0.00 | 96 | 1011.3 |
| 20260504041122 | 49 | 113 | 0.0 | 0.0 | 0.00 | 0.04 | 0.00 | 96 | 1011.3 |
| 20260504040152 | 49 | 113 | 0.0 | 0.0 | 0.00 | 0.04 | 0.00 | 96 | 1011.3 |
| 20260504035120 | 49 | 113 | 0.0 | 0.0 | 0.00 | 0.04 | 0.00 | 96 | 1011.3 |
| 20260504034113 | 50 | 113 | 0.0 | 0.0 | 0.00 | 0.04 | 0.00 | 96 | 1011.2 |
| 20260504033120 | 50 | 113 | 0.0 | 0.0 | 0.00 | 0.04 | 0.00 | 95 | 1011.2 |
| 20260504032113 | 51 | 113 | 0.0 | 0.0 | 0.00 | 0.04 | 0.00 | 95 | 1011.3 |
| 20260504031119 | 51 | 113 | 0.0 | 0.0 | 0.00 | 0.04 | 0.00 | 96 | 1011.3 |
| 20260504030113 | 52 | 113 | 0.0 | 0.0 | 0.00 | 0.04 | 0.00 | 96 | 1011.3 |
| 20260504025127 | 52 | 113 | 0.0 | 0.0 | 0.00 | 0.04 | 0.00 | 96 | 1011.3 |
| 20260504024113 | 52 | 113 | 0.0 | 0.0 | 0.00 | 0.04 | 0.00 | 96 | 1011.2 |
| 20260504023127 | 52 | 113 | 0.0 | 0.0 | 0.00 | 0.04 | 0.00 | 96 | 1011.2 |
| 20260504022114 | 52 | 113 | 0.0 | 0.0 | 0.00 | 0.04 | 0.00 | 96 | 1011.2 |
| 20260504021127 | 52 | 113 | 0.0 | 0.0 | 0.00 | 0.04 | 0.00 | 96 | 1011.3 |
| 20260504020114 | 52 | 113 | 0.0 | 0.0 | 0.00 | 0.04 | 0.00 | 96 | 1011.2 |
| 20260504015142 | 52 | 113 | 0.0 | 0.0 | 0.00 | 0.04 | 0.00 | 96 | 1011.2 |
| 20260504014114 | 52 | 113 | 0.0 | 0.0 | 0.00 | 0.04 | 0.00 | 96 | 1011.2 |
| 20260504013147 | 52 | 113 | 0.0 | 0.0 | 0.00 | 0.04 | 0.00 | 96 | 1011.2 |
| 20260504012112 | 52 | 113 | 0.0 | 0.0 | 0.00 | 0.04 | 0.00 | 96 | 1011.2 |
| 20260504011125 | 52 | 113 | 0.0 | 0.0 | 0.00 | 0.04 | 0.00 | 96 | 1011.1 |
| 20260504010134 | 52 | 113 | 0.0 | 0.0 | 0.00 | 0.04 | 0.00 | 96 | 1011.1 |
| 20260504005121 | 51 | 113 | 0.0 | 0.0 | 0.00 | 0.04 | 0.00 | 96 | 1011.1 |
| 20260504004135 | 51 | 113 | 0.0 | 0.0 | 0.00 | 0.04 | 0.00 | 96 | 1011.1 |
| 20260504003126 | 51 | 113 | 0.0 | 0.0 | 0.00 | 0.04 | 0.00 | 96 | 1011.0 |
| 20260504002112 | 51 | 113 | 0.0 | 0.0 | 0.00 | 0.04 | 0.00 | 96 | 1011.0 |
| 20260504001125 | 51 | 113 | 0.0 | 0.0 | 0.00 | 0.04 | 0.00 | 96 | 1011.0 |
| 20260504000111 | 51 | 113 | 0.0 | 0.0 | 0.00 | 0.04 | 0.00 | 96 | 1011.0 |
| 20260503235124 | 51 | 113 | 0.0 | 0.0 | 0.00 | 0.04 | 0.00 | 95 | 1011.0 |
| 20260503234117 | 51 | 113 | 0.0 | 0.0 | 0.00 | 0.04 | 0.00 | 95 | 1011.0 |
| 20260503233151 | 51 | 113 | 0.0 | 0.0 | 0.00 | 0.04 | 0.00 | 96 | 1011.0 |
| 20260503232115 | 51 | 113 | 0.0 | 0.0 | 0.00 | 0.04 | 0.00 | 96 | 1011.0 |
| 20260503231127 | 50 | 113 | 0.0 | 0.0 | 0.00 | 0.04 | 0.01 | 96 | 1010.9 |
| 20260503230119 | 50 | 113 | 0.0 | 0.0 | 0.00 | 0.04 | 0.01 | 95 | 1010.8 |
| 20260503225130 | 50 | 113 | 0.0 | 0.0 | 0.00 | 0.04 | 0.01 | 95 | 1010.8 |
| 20260503224117 | 50 | 113 | 0.0 | 0.0 | 0.00 | 0.04 | 0.01 | 95 | 1010.7 |
| 20260503223131 | 50 | 113 | 0.0 | 0.0 | 0.00 | 0.04 | 0.01 | 95 | 1010.7 |
| 20260503222124 | 50 | 113 | 0.0 | 0.0 | 0.00 | 0.04 | 0.01 | 95 | 1010.7 |
| 20260503221157 | 50 | 113 | 0.0 | 0.0 | 0.00 | 0.04 | 0.01 | 95 | 1010.7 |
| 20260503220122 | 50 | 113 | 0.0 | 0.0 | 0.00 | 0.04 | 0.01 | 94 | 1010.7 |
| 20260503215135 | 51 | 113 | 0.0 | 0.0 | 0.00 | 0.04 | 0.01 | 94 | 1010.6 |
| 20260503214148 | 51 | 113 | 0.0 | 0.0 | 0.00 | 0.04 | 0.01 | 94 | 1010.4 |
| 20260503213135 | 52 | 113 | 0.0 | 0.0 | 0.00 | 0.04 | 0.01 | 94 | 1010.4 |
| 20260503212121 | 52 | 113 | 0.0 | 0.0 | 0.00 | 0.04 | 0.01 | 95 | 1010.3 |
| 20260503211135 | 51 | 113 | 0.0 | 0.0 | 0.00 | 0.04 | 0.01 | 94 | 1010.2 |
| 20260503210148 | 51 | 113 | 0.0 | 0.0 | 0.00 | 0.04 | 0.01 | 93 | 1010.2 |
| 20260503205112 | 51 | 113 | 0.0 | 0.0 | 0.00 | 0.04 | 0.01 | 93 | 1010.1 |
| 20260503204125 | 52 | 113 | 0.0 | 0.0 | 0.00 | 0.04 | 0.01 | 93 | 1010.0 |
| 20260503203138 | 52 | 113 | 0.0 | 0.0 | 0.00 | 0.04 | 0.01 | 93 | 1009.9 |
| 20260503202123 | 53 | 113 | 0.0 | 0.0 | 0.00 | 0.04 | 0.01 | 93 | 1009.8 |
| 20260503201137 | 53 | 113 | 0.0 | 0.0 | 0.00 | 0.04 | 0.01 | 93 | 1009.7 |
| 20260503200122 | 53 | 113 | 0.0 | 0.0 | 0.00 | 0.04 | 0.01 | 93 | 1009.6 |
| 20260503195113 | 53 | 113 | 0.0 | 0.0 | 0.00 | 0.04 | 0.01 | 92 | 1009.5 |
| 20260503194123 | 53 | 113 | 0.0 | 0.0 | 0.00 | 0.04 | 0.01 | 92 | 1009.3 |
| 20260503193137 | 54 | 113 | 0.0 | 0.0 | 0.00 | 0.04 | 0.01 | 91 | 1009.1 |
| 20260503192123 | 54 | 113 | 0.0 | 0.0 | 0.00 | 0.04 | 0.01 | 91 | 1009.2 |
| 20260503191114 | 55 | 113 | 0.0 | 0.0 | 0.00 | 0.04 | 0.01 | 90 | 1009.1 |
| 20260503190127 | 55 | 113 | 0.0 | 1.0 | 0.00 | 0.04 | 0.01 | 89 | 1009.0 |
| 20260503185138 | 56 | 116 | 0.0 | 1.0 | 0.00 | 0.04 | 0.01 | 89 | 1008.9 |
| 20260503184124 | 56 | 116 | 0.0 | 1.0 | 0.00 | 0.04 | 0.01 | 88 | 1008.9 |
| 20260503183117 | 56 | 117 | 0.0 | 1.0 | 0.00 | 0.04 | 0.01 | 88 | 1008.8 |
| 20260503182124 | 57 | 116 | 0.0 | 0.0 | 0.00 | 0.04 | 0.01 | 87 | 1008.8 |
| 20260503181121 | 58 | 117 | 0.0 | 1.0 | 0.00 | 0.04 | 0.01 | 86 | 1008.7 |
| 20260503180134 | 58 | 108 | 0.0 | 1.0 | 0.00 | 0.04 | 0.01 | 87 | 1008.7 |
| 20260503175140 | 58 | 110 | 0.0 | 1.0 | 0.00 | 0.04 | 0.01 | 84 | 1008.8 |
| 20260503174113 | 60 | 107 | 0.0 | 1.0 | 0.00 | 0.04 | 0.01 | 84 | 1008.7 |
| 20260503173119 | 60 | 117 | 0.0 | 4.0 | 0.04 | 0.04 | 0.01 | 83 | 1008.7 |
| 20260503172112 | 60 | 122 | 0.0 | 2.0 | 0.04 | 0.04 | 0.01 | 81 | 1008.6 |
| 20260503171125 | 61 | 116 | 0.0 | 2.0 | 0.04 | 0.16 | 0.01 | 81 | 1008.6 |
| 20260503170159 | 60 | 103 | 0.0 | 1.0 | 0.04 | 0.16 | 0.01 | 83 | 1008.6 |
| 20260503160136 | 61 | 120 | 0.0 | 1.0 | 0.00 | 0.47 | 0.00 | 85 | 1008.7 |